TimeEDT,TemperatureF,Dew PointF,Humidity,Sea Level PressureIn,VisibilityMPH,Wind Direction,Wind SpeedMPH,Gust SpeedMPH,PrecipitationIn,Events,Conditions,WindDirDegrees,DateUTC
12:56 AM,72.0,71.1,97,29.96,9.0,Calm,Calm,-,N/A,,Scattered Clouds,0,2012-10-07 04:56:00
1:56 AM,71.1,70.0,96,29.96,10.0,Calm,Calm,-,N/A,,Partly Cloudy,0,2012-10-07 05:56:00
2:56 AM,71.1,70.0,96,29.96,9.0,Calm,Calm,-,N/A,,Scattered Clouds,0,2012-10-07 06:56:00
3:56 AM,70.0,69.1,97,29.95,8.0,Calm,Calm,-,N/A,,Partly Cloudy,0,2012-10-07 07:56:00
4:05 AM,69.8,69.8,100,29.94,2.5,Calm,Calm,-,N/A,,Partly Cloudy,0,2012-10-07 08:05:00
4:08 AM,69.8,69.8,100,29.94,8.0,Calm,Calm,-,N/A,,Clear,0,2012-10-07 08:08:00
4:51 AM,69.8,69.8,100,29.94,4.0,Calm,Calm,-,N/A,,Partly Cloudy,0,2012-10-07 08:51:00
4:56 AM,70.0,69.1,97,29.94,4.0,Calm,Calm,-,N/A,,Partly Cloudy,0,2012-10-07 08:56:00
5:56 AM,70.0,68.0,93,29.95,6.0,Calm,Calm,-,N/A,,Partly Cloudy,0,2012-10-07 09:56:00
6:08 AM,69.8,68.0,94,29.95,3.0,Calm,Calm,-,N/A,,Mostly Cloudy,0,2012-10-07 10:08:00
6:22 AM,69.8,68.0,94,29.96,3.0,Calm,Calm,-,N/A,,Scattered Clouds,0,2012-10-07 10:22:00
6:56 AM,69.1,68.0,96,29.96,6.0,Calm,Calm,-,N/A,,Scattered Clouds,0,2012-10-07 10:56:00
7:52 AM,69.8,68.0,94,29.96,1.0,West,4.6,-,N/A,,Mostly Cloudy,260,2012-10-07 11:52:00
7:56 AM,69.1,69.1,100,29.97,1.0,West,4.6,-,N/A,,Mostly Cloudy,270,2012-10-07 11:56:00
8:04 AM,69.8,69.8,100,29.97,4.0,Calm,Calm,-,N/A,,Mostly Cloudy,0,2012-10-07 12:04:00
8:25 AM,71.6,69.8,94,29.98,2.5,Calm,Calm,-,N/A,,Mostly Cloudy,0,2012-10-07 12:25:00
8:36 AM,71.6,71.6,100,29.98,1.0,Calm,Calm,-,N/A,,Mostly Cloudy,0,2012-10-07 12:36:00
8:45 AM,71.6,71.6,100,29.98,0.5,Calm,Calm,-,N/A,Fog,Fog,0,2012-10-07 12:45:00
8:56 AM,72.0,72.0,100,29.99,0.5,Calm,Calm,-,N/A,Fog,Fog,0,2012-10-07 12:56:00
9:11 AM,73.4,71.6,94,29.98,2.0,North,-9999.0,-,N/A,,Mostly Cloudy,0,2012-10-07 13:11:00
9:20 AM,73.4,73.4,100,29.98,6.0,Calm,Calm,-,N/A,,Mostly Cloudy,0,2012-10-07 13:20:00
9:31 AM,73.4,73.4,100,29.99,10.0,Calm,Calm,-,N/A,,Mostly Cloudy,0,2012-10-07 13:31:00
9:42 AM,73.4,73.4,100,29.99,10.0,West,3.5,-,N/A,,Scattered Clouds,280,2012-10-07 13:42:00
9:56 AM,77.0,73.0,88,30.00,10.0,Calm,Calm,-,N/A,,Scattered Clouds,0,2012-10-07 13:56:00
10:56 AM,81.0,72.0,74,30.00,10.0,Calm,Calm,-,N/A,,Scattered Clouds,0,2012-10-07 14:56:00
11:56 AM,82.9,71.1,67,29.99,10.0,SSE,4.6,-,N/A,,Scattered Clouds,150,2012-10-07 15:56:00
12:56 PM,86.0,70.0,59,29.98,10.0,Calm,Calm,-,N/A,,Scattered Clouds,0,2012-10-07 16:56:00
1:56 PM,87.1,69.1,55,29.96,10.0,Calm,Calm,-,N/A,,Scattered Clouds,0,2012-10-07 17:56:00
2:56 PM,88.0,69.1,53,29.94,10.0,SSW,3.5,-,N/A,,Mostly Cloudy,210,2012-10-07 18:56:00
3:56 PM,86.0,73.0,65,29.93,10.0,East,11.5,-,N/A,,Mostly Cloudy,80,2012-10-07 19:56:00
4:56 PM,84.0,73.0,69,29.93,10.0,SE,11.5,-,N/A,,Mostly Cloudy,130,2012-10-07 20:56:00
5:56 PM,81.0,71.1,72,29.94,10.0,East,9.2,-,N/A,,Mostly Cloudy,100,2012-10-07 21:56:00
6:56 PM,80.1,71.1,74,29.95,10.0,ESE,6.9,-,N/A,,Mostly Cloudy,120,2012-10-07 22:56:00
7:56 PM,79.0,72.0,79,29.96,10.0,SE,8.1,-,N/A,,Mostly Cloudy,140,2012-10-07 23:56:00
8:56 PM,78.1,73.0,84,29.98,10.0,SSE,4.6,-,N/A,,Mostly Cloudy,160,2012-10-08 00:56:00
9:56 PM,77.0,73.0,88,30.00,10.0,South,3.5,-,N/A,,Mostly Cloudy,170,2012-10-08 01:56:00
10:56 PM,75.0,73.0,94,30.01,10.0,North,3.5,-,N/A,,Mostly Cloudy,350,2012-10-08 02:56:00
11:56 PM,73.9,73.0,97,30.00,10.0,Calm,Calm,-,N/A,,Mostly Cloudy,0,2012-10-08 03:56:00